Location: Blanice
(49.5000°N, 14.8000°E)
Time: 09:40:52
(UTC+00:00)

Daily predictions for brighter satellites

Satellite Brightness Start Highest point End
(mag) Time Altitude Azimuth Time Altitude Azimuth Time Altitude Azimuth
USA 276 3.0 19:14:40 10° W 19:17:38 38° SSW 19:20:35 10° SE
USA 234 4.3 19:14:46 10° ENE 19:20:59 47° N 19:27:12 10° WNW
SAR-Lupe-1 4.4 19:19:08 10° N 19:22:42 70° WNW 19:26:16 10° SSW
SAR-Lupe-4 3.8 19:20:45 10° NNE 19:24:21 77° WNW 19:27:55 10° SSW
Cosmos 2219 Rocket 3.9 19:22:43 10° N 19:26:59 21° NE 19:31:12 10° E
Spot 2 Rocket 4.3 19:23:24 10° SE 19:28:04 37° ENE 19:32:45 10° N
Cosmos 1633 3.2 19:26:05 10° SSW 19:29:40 60° WNW 19:33:15 10° N
BREEZE-M DEB (TANK) 3.6 19:27:50 10° SW 19:31:23 51° SE 19:43:09 10° ENE
Cosmos 1680 Rocket 4.0 19:30:24 10° S 19:35:15 39° ESE 19:40:07 10° NE
Cosmos 1076 Rocket 4.1 19:32:28 10° SSW 19:36:48 63° WNW 19:41:09 10° N
Resurs 01 Rocket 1.8 19:32:47 10° SSE 19:37:14 81° WSW 19:41:43 10° NNW
SL-16 R/B 2.3 19:34:58 10° NNW 19:40:42 90° ENE 19:46:23 10° SSE
Cosmos 1151 Rocket 3.5 19:36:44 10° N 19:40:56 45° ENE 19:44:56 11° SSE
Terra 3.2 19:40:07 10° ESE 19:43:58 26° ENE 19:47:54 10° N
ATLAS 5 CENTAUR R/B 3.6 19:40:20 10° NNW 19:44:45 28° NNE 19:49:52 10° E
Cosmos 332 Rocket 4.5 19:42:25 10° NNW 19:47:12 54° WSW 19:51:58 10° S
Meteor 2-3 Rocket 3.7 19:41:57 10° S 19:47:36 75° E 19:53:22 10° NNE
SPOT 3 Rocket 3.7 19:42:45 10° SSE 19:47:59 83° WSW 19:53:15 10° NNW
NOSS 2-1 (E) 4.1 19:45:58 10° S 19:48:35 22° ESE 19:51:13 10° ENE
CZ-2C R/B 4.0 19:44:50 10° NNE 19:49:13 47° E 19:53:30 10° S
Cosmos 2237 4.3 19:44:59 10° NNW 19:50:43 68° ENE 19:55:45 13° SE
Cosmos 1933 3.7 19:48:03 10° NNW 19:52:04 67° W 19:56:04 10° S
Cosmos 1271 Rocket 3.0 19:49:24 10° NNW 19:53:24 75° W 19:57:23 10° S
NOSS 3-1 (C) 4.4 19:47:05 10° NW 19:54:08 58° NE 20:02:01 12° ESE
COSMOS 2428 4.2 19:49:41 10° NNW 19:54:27 26° NE 19:59:12 10° E
Cosmos 1328 Rocket 4.0 19:50:13 10° N 19:54:33 48° ENE 19:58:06 14° SSE
Cosmos 1766 Rocket 3.9 19:51:07 10° SSE 19:55:18 46° E 19:59:29 10° NNE
Gbstr 26 Del rocket 3.7 19:51:57 10° W 19:55:21 34° SW 19:58:12 14° SSE
SPOT 5 3.2 19:57:34 15° SE 20:00:53 44° ENE 20:05:08 10° N
CZ-3B R/B 4.1 19:42:28 10° W 20:01:24 63° N 20:05:53 10° E
ARIANE 5 R/B 2.9 19:58:58 15° SE 20:02:35 56° ENE 20:06:56 10° N
JB-3 4.5 19:58:58 10° NNE 20:03:03 58° E 20:07:03 10° S
Cosmos 292 Rocket 4.4 20:00:40 10° NNW 20:05:15 45° ENE 20:08:41 17° SE
Meteor 2-6 Rocket 4.3 20:00:14 10° N 20:05:35 56° ENE 20:09:47 16° SSE
Cosmos 1862 4.1 20:04:12 17° SSE 20:06:46 34° E 20:10:23 10° NNE
Cosmos 1782 2.9 20:04:01 10° NNW 20:08:03 75° W 20:11:44 12° S
Cosmos 1624 Rocket 4.0 20:06:49 10° NNW 20:12:04 80° ENE 20:16:05 17° SSE
Cosmos 2082 Rocket 4.2 20:09:15 10° WSW 20:14:16 32° NW 20:19:21 10° NNE
Cosmos 220 Rocket 4.1 20:10:55 10° NNW 20:15:16 74° WSW 20:18:36 17° SSE
ATLAS 3B R/B 4.4 20:13:46 10° WNW 20:19:28 26° WSW 20:25:19 10° SSW
Cosmos 2360 Rocket 2.2 20:14:07 10° NNW 20:19:47 85° ENE 20:23:55 19° SSE
Cosmos 1420 Rocket 4.2 20:15:13 10° NNW 20:20:33 66° ENE 20:24:12 20° SE
ATLAS 2AS CENTAUR R/B 4.4 20:16:23 10° W 20:23:43 40° NNW 20:30:47 10° NE
Cosmos 1174 3.1 20:22:10 10° NNW 20:25:11 67° NE 20:26:29 30° SE
COSMOS 2487 4.3 20:26:57 16° E 20:26:57 16° E 20:28:42 10° ENE
USA 267 4.5 20:22:56 10° E 20:27:10 18° ESE 20:27:32 18° SE
NOSS 3-1 (A) 4.4 20:23:29 10° NW 20:30:35 60° NE 20:37:35 15° ESE
NOSS 2-1 (C) 2.7 20:29:23 10° SSW 20:32:39 70° SE 20:36:02 10° NE
Cosmos 2026 Rocket 4.5 20:30:05 10° SSW 20:36:21 63° WNW 20:42:34 10° N
Cosmos 1500 Rocket 4.3 20:34:48 25° SE 20:36:36 35° E 20:40:40 10° NNE
Cosmos 1812 2.9 20:34:16 10° NNW 20:38:07 67° W 20:40:31 21° S
Cosmos 2084 3.3 20:34:14 10° SW 20:38:18 87° NW 20:42:31 10° NE
COSMOS 2455 3.4 20:34:51 18° SSE 20:38:38 37° ESE 20:44:05 10° NE
Cosmos 1833 4.3 20:33:49 10° S 20:39:29 59° ESE 20:45:10 10° NE
GP-B 3.9 20:35:13 10° N 20:39:32 51° W 20:43:49 10° SSW
Meteor 1-27 Rocket 4.1 20:34:27 10° N 20:40:00 53° ENE 20:43:22 24° SE
NOSS 2-1 (D) 2.7 20:37:08 10° SW 20:40:24 84° SE 20:43:50 10° NE
Cosmos 2333 Rocket 2.4 20:35:17 10° NNW 20:40:56 65° ENE 20:44:24 24° SE
Cosmos 1452 Rocket 3.9 20:37:49 10° NNW 20:43:00 54° ENE 20:45:57 24° SE
ERS-1 Rocket 3.1 20:40:25 20° S 20:43:55 76° WSW 20:48:58 10° NNW
Meteor 2-16 Rocket 4.5 20:42:27 19° S 20:46:47 63° E 20:52:49 10° NNE
SL-27 R/B 2.4 20:44:41 16° SSW 20:47:29 86° WNW 20:51:07 10° NNE
Cosmos 2322 3.8 20:42:24 10° NNW 20:48:09 70° ENE 20:51:30 26° SE
H-2A R/B 4.1 20:45:27 10° NNE 20:49:24 38° E 20:50:39 31° SE
Cosmos 2056 Rocket 4.1 20:47:40 10° NNW 20:52:51 50° WSW 20:56:16 20° S
Okean 3 Rocket 4.4 20:48:36 10° SSW 20:52:59 52° WNW 20:57:25 10° N
Cosmos 2237 Rocket 3.7 20:48:41 10° NNW 20:53:31 28° NE 20:57:41 13° E
Cosmos 1408 Rocket 3.5 20:50:55 21° S 20:53:46 90° W 20:58:08 10° N
Cosmos 2322 Rocket 3.4 20:48:47 10° NW 20:53:50 35° WSW 20:57:55 15° SSW
Cosmos 1743 Rocket 3.7 20:55:45 31° SSE 20:57:36 55° E 21:01:56 10° NNE
Sich 1 4.2 20:57:14 25° ESE 20:58:03 26° E 21:01:40 10° NNE
CZ-4B DEB 4.1 21:00:12 51° SSE 21:00:55 89° WNW 21:04:05 10° NNW
USA 234 3.9 20:57:03 10° E 21:03:25 56° NNE 21:09:47 10° WNW
Meteor 1-10 Rocket 4.4 20:58:19 10° NNW 21:03:50 68° W 21:07:16 23° S
Gblst 52 Del rocket 4.4 21:00:58 10° WNW 21:07:01 83° SSW 21:11:50 21° ESE
IRIDIUM 104 4.4 21:04:36 10° N 21:09:48 61° E 21:12:02 33° SSE
Cosmos 2219 Rocket 2.1 21:06:07 10° NNW 21:11:45 87° ENE 21:14:26 32° SSE
Cosmos 1515 Rocket 4.4 21:14:07 10° NNW 21:18:20 44° W 21:20:36 24° SSW
IRIDIUM 114 4.3 21:13:42 10° N 21:18:57 73° E 21:21:09 35° SSE
Terra 2.5 21:19:00 25° SSW 21:21:29 47° W 21:26:06 10° NNW
SL-16 R/B 4.2 21:18:31 10° N 21:22:40 20° NE 21:26:48 10° E
Cosmos 2285 Rocket 3.9 21:16:50 10° NNW 21:23:11 90° SW 21:26:17 32° SSE
SL-16 R/B 4.4 21:20:36 10° WNW 21:23:59 16° W 21:27:23 10° SW
Cosmos 2266 Rocket 4.0 21:19:57 22° SSW 21:24:08 83° W 21:30:27 10° N
Spot 4 4.4 21:23:58 32° ESE 21:25:43 46° ENE 21:30:22 10° N
Cosmos 2315 Rocket 4.0 21:21:19 10° N 21:27:41 90° W 21:30:56 31° S
IRIDIUM 103 4.3 21:22:52 10° N 21:28:07 86° E 21:30:18 36° S
Cosmos 1515 3.9 21:25:52 10° N 21:29:35 52° ENE 21:30:04 48° ESE
ATLAS 5 CENTAUR R/B 2.2 21:24:34 10° NW 21:30:02 86° NE 21:33:05 32° SE
Cosmos 2228 Rocket 3.1 21:29:28 10° NNW 21:33:53 74° W 21:35:17 43° S
Cosmos 494 Rocket 4.1 21:32:48 40° SSE 21:34:10 52° ESE 21:39:10 10° NNE
Okean 1 3.7 21:34:58 10° N 21:38:52 49° ENE 21:39:27 45° ESE
COSMOS 2428 2.7 21:33:37 10° NNW 21:39:19 73° WSW 21:41:31 38° S
Cosmos 1602 3.9 21:39:19 50° ESE 21:39:29 51° E 21:43:14 10° NNE
Meteor 1-19 Rocket 4.3 21:38:41 10° N 21:44:18 66° ENE 21:46:15 39° SE
Cosmos 1707 Rocket 3.6 21:40:40 10° N 21:45:02 68° ENE 21:45:57 52° SE
IRIDIUM 106 4.5 21:41:09 10° N 21:46:20 68° W 21:48:29 35° SSW
Cosmos 1048 Rocket 3.9 21:48:39 36° SSW 21:50:50 89° ESE 21:55:59 10° NNE
Cosmos 1666 4.4 21:51:36 21° E 21:51:36 21° E 21:54:17 10° NE
ALOS 2 2.9 21:59:22 46° ESE 22:00:16 55° ENE 22:04:34 10° N
Cosmos 2219 4.2 22:00:29 28° ESE 22:01:02 29° ESE 22:05:53 10° NE
COSMOS 2487 3.6 22:00:10 32° W 22:01:03 38° WNW 22:04:17 10° N
USA 229 DEB 4.1 21:54:03 10° NW 22:01:12 59° WSW 22:04:27 35° S
USA 229 4.1 21:54:07 10° NW 22:01:18 59° WSW 22:04:33 35° S
Cosmos 972 Rocket 4.4 21:59:17 23° SW 22:02:27 57° WNW 22:07:21 10° NNE
Cosmos 2360 Rocket 4.2 21:59:28 10° WNW 22:03:02 17° W 22:05:41 13° SW
Cosmos 1805 Rocket 4.0 22:02:11 37° SW 22:03:40 56° WNW 22:08:03 10° N
Cosmos 1302 Rocket 4.2 21:58:29 10° NNW 22:03:41 63° ENE 22:05:22 41° SE
Cosmos 2084 Rocket 3.3 22:04:38 10° NW 22:08:50 81° SW 22:09:18 69° SSE
Nadezhda 1 Rocket 4.3 22:04:25 10° N 22:10:47 60° ENE 22:13:14 37° SE
CZ-4C R/B 3.9 22:04:38 10° NW 22:10:59 42° NNE 22:18:29 10° E
USA 267 3.2 22:04:39 10° ENE 22:11:08 60° SE 22:14:48 27° SSW
Cosmos 1980 3.6 22:10:03 10° NNW 22:15:45 89° ENE 22:17:31 46° SSE
NOSS 0 Rocket 4.0 22:10:40 10° NW 22:16:52 67° WSW 22:18:54 43° S
Okean 1-7 4.1 22:14:57 10° N 22:18:47 31° ENE 22:19:30 29° E
NOSS 3-1 (A) 4.5 22:14:27 10° NW 22:21:40 49° WSW 22:25:00 34° S
COSMOS 2455 3.6 22:18:33 10° WSW 22:24:25 52° NW 22:30:19 10° NNE
Cosmos 2333 Rocket 3.7 22:20:20 10° NW 22:24:43 24° WSW 22:26:23 21° SW
Lacrosse 5 2.0 22:25:50 51° SE 22:25:50 51° SE 22:30:40 10° ENE
NOSS 2-2 (D) 4.3 22:25:32 10° NW 22:30:42 87° SW 22:33:24 38° SE
BREEZE-M R/B 2.4 22:31:57 71° S 22:32:01 71° SSE 22:37:17 10° E
Cosmos 2297 Rocket 2.3 22:32:07 49° SSE 22:33:14 58° ESE 22:38:49 10° NE
Cosmos 1500 3.3 22:34:31 66° W 22:34:37 66° WNW 22:38:28 10° N
Sich 1 4.3 22:34:10 27° WSW 22:35:35 34° WNW 22:39:34 10° N
Cosmos 2237 Rocket 2.2 22:32:26 10° NNW 22:38:06 68° WSW 22:39:29 50° S
Thor Agena Rocket 4.3 22:33:43 10° NNE 22:38:23 36° E 22:39:01 35° ESE
Cosmos 1470 Rocket 3.3 22:43:08 76° S 22:43:26 86° ESE 22:47:48 10° N
Cosmos 1633 Rocket 3.4 22:44:03 48° WSW 22:44:47 55° WNW 22:49:05 10° N
Cosmos 2227 Rocket 2.4 22:44:30 48° SSE 22:45:30 55° ESE 22:51:02 10° NE
USA 234 3.1 22:42:59 32° SE 22:46:18 77° SW 22:52:53 10° WNW
Cosmos 1933 Rocket 3.6 22:49:28 64° SE 22:49:48 67° E 22:54:15 10° NNE
SAR-Lupe-2 4.3 22:49:34 10° NNE 22:52:30 44° ENE 22:52:30 44° ENE
Cosmos 2242 Rocket 3.6 22:48:51 10° N 22:53:17 69° ENE 22:53:45 63° ESE
Cosmos 1340 Rocket 2.8 22:54:24 68° ENE 22:54:24 68° ENE 22:58:09 10° NNE
Cosmos 2219 Rocket 4.0 22:51:31 10° WNW 22:54:56 17° W 22:56:08 16° WSW
Cosmos 1544 4.4 22:55:37 31° ENE 22:55:37 31° ENE 22:58:23 10° NNE
Cosmos 1378 3.3 22:52:25 10° N 22:55:52 67° NE 22:55:52 67° NE
Cosmos 2263 Rocket 4.2 22:57:34 14° ESE 22:58:34 15° E 23:01:34 10° ENE
SL-16 R/B 4.5 22:56:37 10° ESE 23:01:12 23° NE 23:05:50 10° N
Cosmos 44 4.3 22:59:30 10° NNW 23:04:39 46° NE 23:07:58 20° ESE
Cosmos 2181 Rocket 4.3 22:59:19 10° N 23:05:34 58° ENE 23:08:02 36° SE
SL-16 R/B 2.2 23:02:02 10° NNW 23:07:44 80° ENE 23:09:38 44° SE
Cosmos 2251 Rocket 4.3 23:08:14 35° ESE 23:08:57 37° ESE 23:13:50 10° NE
ATLAS 5 CENTAUR R/B 3.7 23:09:53 10° WNW 23:14:22 23° WSW 23:14:35 23° WSW
Okean 3 3.5 23:11:22 10° N 23:15:39 68° ENE 23:16:01 64° ESE
Intercosmos 25 Rocket 3.6 23:24:02 66° SSE 23:24:37 81° E 23:30:40 10° NNE
Cosmos 1743 3.4 23:25:44 44° E 23:25:44 44° E 23:29:15 10° NNE
Cosmos 1666 3.8 23:26:25 33° W 23:26:39 33° WNW 23:30:12 10° N
Meteor 1-11 Rocket 3.6 23:25:58 52° S 23:27:21 84° E 23:32:55 10° NNE
Helios 1A 4.4 23:27:02 26° ESE 23:28:27 33° ENE 23:32:14 10° N
Cosmos 1703 Rocket 3.8 23:25:11 10° NNW 23:29:26 51° W 23:29:38 51° WSW
ARGOS Delta rocket 4.4 23:27:39 10° NNE 23:31:59 40° E 23:32:38 38° ESE
Cosmos 1709 Rocket 4.0 23:30:39 43° SSW 23:32:53 77° W 23:39:18 10° N
PSLV R/B 3.7 23:28:30 10° NNE 23:33:18 86° WNW 23:34:07 62° SSW
Cosmos 1992 Rocket 4.1 23:30:51 10° NNW 23:35:58 55° WSW 23:36:41 50° SW
ASTEX 1 3.8 23:35:16 40° SE 23:36:40 55° ENE 23:41:30 10° N
ALOS 2 4.4 23:36:46 18° W 23:36:56 19° W 23:40:02 10° NW
Cosmos 909 Rocket 4.3 23:36:15 36° SW 23:39:21 87° NW 23:47:25 10° NE
Cosmos 1943 4.3 23:34:18 10° NNW 23:39:45 43° NE 23:44:45 12° ESE
SL-8 R/B 4.1 23:43:02 44° SE 23:43:02 44° SE 23:46:56 10° E
Cosmos 1733 Rocket 4.0 23:41:40 33° ESE 23:42:28 36° E 23:46:35 10° NNE
CZ-2D R/B 3.7 23:38:57 10° NE 23:43:23 25° E 23:45:32 20° SE
Cosmos 2219 3.7 23:42:22 32° WSW 23:44:52 56° NW 23:50:34 10° NNE
Cosmos 1066 Rocket 4.5 23:41:24 10° NNW 23:47:10 58° W 23:48:43 44° SSW
Meteor 1-23 Rocket 4.2 23:48:16 10° NNW 23:53:59 74° W 23:55:43 46° S
YAOGAN 11 4.3 23:53:53 48° SE 23:55:02 71° ENE 23:59:31 10° N
Okean 1-7 4.2 23:52:38 10° NNW 23:56:17 28° W 23:56:19 28° W
